STARLINK-32341, 61639

Orbit data source: Space-Track

STARLINK-32341, 61639 is a payload satellite owned by SpaceX/Seattle (US) in LEO that was launched on Wed, 23 Oct 2024 UTC via an FALCON 9 launch vehicle from the Air Force Eastern Test Range (AFETR). Payload-class satellites include a variety of spacecraft equipped with specific instruments for various scientific and technological missions. These include communications satellites like Starlink; space stations such as the ISS; scientific satellites like the Hubble; Earth observation satellites from companies like Planet Labs, Umbra, and HawkEye 360; GPS; miniature CubeSats for education and research; and military/defense satellites.

Loading next visibility...
Identifier
61639, 2024-191U
Orbit
LEO
Country
Flag of USUS
Related business
Manufacturer
SpaceX/Seattle
Mission
Operational Commercial Communications
Bus & Motor
STARLINK V2M, Unknown motor
Mass
730 kg wet, ~700 kg dry
Launch date (UTC)
2024-10-23 (2 years ago)
Launch vehicle
FALCON 9
Launch site
Air Force Eastern Test Range (AFETR)
Object type
Payload
Rocket body
Debris
Shape & HBR
Box + 2 Pan, 17.7 m
Radar Cross Section
33.884 m², Large (>1 m²)

Expand to show TLE details & history
Last TLE update: 7 hours ago

TLE from 7 hours ago
0 STARLINK-32341
1 61639U 24191U   26221.81131644  .00000634  00000-0  32580-4 0  9998
2 61639  43.0067   9.8136 0001928 262.2277  97.8355 15.27589198100959
Epoch: 2026-08-09T19:28Z
TLE epoch observation values (Epoch: 2026-08-09T19:28:17.740Z)
Latitude
-0.00007°
Longitude
119.43665°
Altitude
482.978 km
Speed
7.626 km/s
True Right ascension
00h 39m 15s
True Declination
0° 00' 00"
Sunlit
Object was in full shadow at epoch
Visualization orbit readout
Latitude
Unknown
Longitude
Unknown
Altitude
Unknown
Speed
Unknown
Apparent Right ascension
Unknown
Apparent Declination
Unknown
Sunlit
N/A
Visualization observer readout
Local Sidereal Time
16:26:26
Azimuth
Unknown
Elevation
Unknown
Doppler factor
Unknown
Orbital elements
Apogee altitude
486.289 km
Perigee altitude
483.642 km
Semi-major axis
6,863.103 km
Eccentricity
0.00019
Inclination
43.0067°
RAAN
9.8136°
Arg. of periapsis
262.2277°
True anomaly
97.85739°
Mean anomaly
97.8355°
Eccentric anomaly
97.84644°
Mean motion
3.81735 °/min
Orbital period
94.31 mins
BSTAR
0.00003258
Loading maneuver chart data...
Computing Atmospheric mass density...
Loading historical data...
Loading historical data...
Loading historical data...
Loading historical data...
Loading historical data...
Loading historical data...
Loading historical data...

Documentation

Showing up to 5 results
|